This is the latest recevied weather packets stored in our database for station/object N9DRW. If no packets are shown the sender has not sent any weather packets the latest 10 day(s).
| Time | Temp. | Humidity | Pressure | Rain* | Wind** | Luminosity | Snow |
|---|---|---|---|---|---|---|---|
| 1778061125 | 3.89° C | 65% | 0 hPa | 0 mm | - | - | - |
| 1778060526 | 3.89° C | 65% | 0 hPa | 0 mm | - | - | - |
| 1778059926 | 3.89° C | 65% | 0 hPa | 0 mm | - | - | - |
| 1778059326 | 3.89° C | 66% | 0 hPa | 0 mm | - | - | - |
| 1778058726 | 3.33° C | 67% | 0 hPa | 0 mm | - | - | - |
| 1778058126 | 3.33° C | 68% | 0 hPa | 0 mm | - | - | - |
| 1778057527 | 3.33° C | 68% | 0 hPa | 0 mm | - | - | - |
| 1778056926 | 3.33° C | 69% | 0 hPa | 0 mm | - | - | - |
| 1778056329 | 3.89° C | 68% | 0 hPa | 0 mm | - | - | - |
| 1778055726 | 3.89° C | 66% | 0 hPa | 0 mm | - | - | - |
| 1778055125 | 3.89° C | 65% | 0 hPa | 0 mm | - | - | - |
| 1778054526 | 3.89° C | 63% | 0 hPa | 0 mm | - | - | - |
| 1778053926 | 4.44° C | 62% | 0 hPa | 0 mm | - | - | - |
| 1778053326 | 4.44° C | 61% | 0 hPa | 0 mm | - | - | - |
| 1778052730 | 4.44° C | 62% | 0 hPa | 0 mm | - | - | - |
| 1778052126 | 4.44° C | 60% | 0 hPa | 0 mm | - | - | - |
| 1778051526 | 4.44° C | 61% | 0 hPa | 0 mm | - | - | - |
| 1778050926 | 4.44° C | 62% | 0 hPa | 0 mm | - | - | - |
| 1778050325 | 4.44° C | 63% | 0 hPa | 0 mm | - | - | - |
| 1778049726 | 3.89° C | 65% | 0 hPa | 0 mm | - | - | - |
| 1778049126 | 4.44° C | 68% | 0 hPa | 0 mm | - | - | - |
| 1778048525 | 4.44° C | 67% | 0 hPa | 0 mm | - | - | - |
| 1778047926 | 5° C | 63% | 0 hPa | 0 mm | - | - | - |
| 1778047326 | 4.44° C | 60% | 0 hPa | 0 mm | - | - | - |
| 1778046726 | 4.44° C | 59% | 0 hPa | 0 mm | - | - | - |
* Rain latest hour (hover to see other rain measurements)
** Current wind speed in m/s (hover to see current wind gust speed)